Zurück zum Katalog

THORAD DELTA 1 DEB

AktivLEO
NORAD 8151·DEBRIS·🇺🇸 United States

Gestartet Nov 15, 1974 von Vandenberg Space Force Base

Loading…

Nächste Überflüge (nächste 24 Stunden)

TLE

AktuellSource: Space-Track

Epoche: Sep 14, 2026, 03:43 UTC

1 08151U 74089R   26257.15522170  .00000215  00000-0  89981-3 0  9994
2 08151 101.7925  17.6941 0336822 225.2323 261.9204 12.81363077420180

Verfolge THORAD DELTA 1 DEB in Echtzeit mit AllMySat

Download on the App Store